Vertical_Velocity
-0 -0 -0 -0 -0 -0 -0 -0 -0 -1 -1 -0 -0 -0 -0 -1 -1 -1 -1 -1 -1 -1 -0 -0 -0 -0 -0 0 0 1 1 1 1 0 0 0 0 1 1 1 1 0 -0 -0 -0 0 0 0 0 0 0 0 0 0 0 -0 -0 -0 -0 -0 -1 -1 -1 -1 -1 -0 -0 -0 -0 -0 -0 0 0 0 0 0 0 -0 -0 -0 0 0 0 0 0 0 0 0 0 1 1 0 0 1 1 1 1 1 1 1 1 0 0
0 0 0 0 0 0 -0 -0 -0 -0 -0 -0 -0 -0 -0 -0 -0 -1 -1 -1 -1 -1 -1 -0 -0 -0 -0 -0 0 0 1 1 1 1 1 0 1 1 1 1 1 0 0 -0 -0 -0 0 0 1 1 0 0 0 0 0 0 0 0 0 0 -0 -0 -0 -0 -0 -0 -0 -0 -0 -0 -0 -0 0 0 0 1 0 0 -0 -0 0 0 1 0 0 0 -0 0 0 0 0 0 0 1 1 1 1 1 1 1 1 1 0
0 0 0 0 0 -0 -0 -0 -0 -0 -0 -0 -0 -0 -0 -0 -0 -0 -0 -1 -1 -1 -1 -1 -0 -0 -0 -0 -0 0 0 1 1 1 1 1 1 1 1 1 1 1 0 -0 -0 -0 -0 0 0 1 1 0 0 0 0 0 0 1 1 1 0 0 -0 0 0 0 -0 -0 -0 -0 -0 -0 -0 0 0 0 0 0 0 0 0 0 0 0 0 0 0 0 0 0 0 0 0 0 0 0 1 1 1 1 1 1 1
0 0 -0 -0 -0 -0 -0 -0 -0 -0 -0 -0 -0 -0 -0 -0 -0 -0 -0 -0 -0 -1 -1 -1 -1 -0 -0 -0 -0 -0 0 0 0 1 1 1 1 1 1 1 1 1 0 0 -0 -0 -0 -0 0 1 1 1 0 0 0 0 0 0 0 1 1 0 0 0 0 0 0 0 0 0 0 -0 -0 -0 0 0 0 0 0 0 0 0 0 0 1 1 1 0 0 0 0 0 0 -0 -0 -0 0 0 1 1 1 1 1
0 0 -0 -0 -0 -0 -0 -0 -0 -0 -0 -0 -0 -0 -0 -0 -0 -0 -0 -0 -0 -0 -0 -0 -0 -0 -1 -0 -0 -0 -0 -0 0 0 0 1 1 1 1 1 1 1 1 0 0 -0 -0 -0 0 1 1 1 1 1 0 0 0 0 0 0 0 0 0 0 0 0 0 0 0 0 0 0 0 0 -0 -0 0 0 0 0 0 0 0 0 0 0 1 1 1 0 0 0 0 0 0 -0 -0 0 0 1 1 1 1
1 0 0 0 0 -0 -0 0 0 -0 -0 -0 -0 -0 -0 -0 -0 -0 -1 -1 -0 -0 -0 -0 -0 -0 -1 -0 -0 -0 -0 -0 -0 -0 0 0 0 1 1 1 1 1 1 1 1 0 0 0 0 0 0 1 1 1 1 1 1 0 0 0 0 0 0 0 0 0 0 0 0 0 0 0 0 0 0 -0 -0 -0 -0 -0 -0 -0 -0 -0 -0 -0 0 0 0 0 0 0 0 0 0 -0 -0 -0 0 0 0 1 1
1 1 1 1 1 0 0 0 0 0 0 0 -0 -0 -0 -0 -0 -0 -1 -1 -1 -1 -1 -0 -0 -0 -1 -0 -0 -0 -0 -0 -0 -0 -0 -0 0 0 0 0 1 1 1 1 1 0 0 -0 -0 -0 -0 0 0 1 1 1 1 1 1 0 0 0 0 0 0 0 0 0 -0 -0 -0 0 0 0 0 0 -0 -0 -0 -0 -0 -0 -0 -1 -1 -1 -1 -0 -0 -0 -0 -0 -0 -0 -0 -0 -0 -0 -0 -0 -0 0 0
1 1 1 1 1 1 1 1 1 0 0 0 0 0 -0 -0 -0 -0 -0 -0 -1 -1 -1 -1 -1 -1 -1 -1 -1 -1 -0 -0 -0 -0 -0 -0 -0 -0 -0 0 0 0 1 1 0 0 -0 -0 -0 -0 -0 -0 -0 -0 0 0 0 0 0 0 0 0 0 0 0 0 0 0 0 -0 -0 -0 -0 -0 -0 -0 -0 -0 -0 -0 -0 -0 -0 -0 -1 -1 -1 -1 -1 -1 -1 -1 -1 -1 -1 -0 -0 -0 -0 -0 -0 -0 -0
1 1 1 1 1 1 1 1 1 0 0 0 0 0 -0 -0 -0 -0 -0 -0 -1 -1 -1 -1 -1 -1 -1 -1 -1 -1 -1 -1 -0 -0 -0 -0 -0 -0 -0 -0 -0 -0 0 0 0 -0 -0 -0 -1 -1 -0 -0 -0 -1 -0 -0 -0 -0 -0 -0 -0 -0 -0 -0 -0 -0 -0 -0 -0 0 -0 -0 -0 -0 -0 -0 -0 -0 -0 -0 -0 -0 -0 -0 -0 -1 -1 -1 -1 -1 -1 -1 -1 -1 -1 -1 -1 -1 -1 -1 -1 -1 -0
1 0 0 0 0 0 0 0 0 0 0 0 0 0 0 -0 -0 -0 -0 -0 -0 -1 -1 -1 -1 -1 -0 -1 -1 -1 -1 -1 -1 -1 -0 -0 -0 -0 -0 -0 -0 -0 -0 -0 -0 -0 -0 -0 -1 -1 -1 -0 -0 -1 -1 -1 -1 -1 -1 -1 -0 -0 -0 -0 -0 -1 -1 -0 -0 -0 -0 -0 -0 -0 -0 -0 -0 -0 -0 -0 -0 -0 -0 -0 -0 -0 -0 -1 -1 -1 -1 -1 -1 -1 -1 -1 -1 -1 -1 -1 -1 -1 -1
0 0 0 0 0 0 0 0 0 0 0 0 0 0 0 0 0 -0 -0 -0 -0 -0 -0 -0 -1 -1 -1 -0 -0 -0 -1 -1 -1 -1 -1 -0 -0 -0 -0 -0 -0 -0 -0 -0 -0 -0 -0 -0 -1 -1 -1 -1 -0 -0 -0 -1 -1 -1 -1 -1 -1 -1 -1 -1 -1 -1 -1 -1 -1 -1 -1 -1 -1 -0 -0 -0 -1 -0 -0 -0 -0 -0 -0 -0 -0 -0 -0 -0 -0 -1 -1 -1 -1 -1 -1 -1 -1 -1 -1 -1 -1 -1 -1
0 0 0 0 0 0 0 -0 -0 -0 -0 -0 0 0 0 0 0 0 0 -0 -0 -0 -0 -0 -0 -1 -1 -1 -1 -1 -0 -1 -1 -1 -1 -1 -0 -0 -0 -0 -0 -0 -0 -0 -0 -0 0 -0 -0 -0 -1 -1 -1 -0 -0 -0 -0 -1 -1 -1 -1 -1 -1 -1 -1 -1 -1 -1 -1 -1 -1 -1 -1 -1 -1 -1 -1 -1 -1 -1 -0 -0 -0 -0 -0 -0 -0 -0 -0 -0 -1 -1 -1 -1 -1 -1 -1 -1 -1 -1 -1 -1 -1
0 0 0 0 0 0 0 0 -0 -0 -0 -0 -0 -0 0 0 0 0 0 0 -0 -0 -0 -0 -0 -0 -1 -1 -1 -1 -1 -1 -1 -0 -0 -0 -0 -0 -0 -0 -0 -0 -0 -0 -0 -0 -0 -0 -0 -0 -0 -1 -1 -1 -0 -0 -0 -0 -0 -1 -1 -1 -1 -1 -1 -1 -1 -1 -1 -1 -1 -1 -1 -1 -1 -1 -1 -1 -1 -1 -1 -1 -1 -1 -1 -1 -1 -1 -1 -1 -1 -1 -1 -1 -1 -2 -2 -2 -2 -1 -1 -1 -1
0 0 0 0 0 0 0 -0 -0 -0 -0 -0 -0 -0 -0 -0 -0 -0 0 -0 -0 -0 -0 -0 -0 -0 -0 -1 -1 -1 -1 -1 -1 -1 -1 -1 -0 -0 -0 -0 -0 -0 -0 -0 -0 -0 -0 -0 -0 -0 -0 -1 -1 -1 -1 -1 -0 -0 -0 -0 -1 -1 -1 -1 -1 -1 -1 -1 -1 -1 -1 -1 -1 -1 -1 -1 -1 -1 -1 -2 -2 -1 -1 -1 -1 -1 -1 -1 -1 -1 -1 -1 -1 -1 -1 -2 -2 -2 -2 -2 -2 -2 -2
-0 -0 -0 -0 -0 -0 -0 -0 -0 -0 -0 -0 -0 -0 -0 -0 -0 -0 -0 -0 -0 -0 -0 -0 -0 -1 -1 -1 -1 -1 -1 -1 -1 -1 -1 -1 -1 -1 -1 -1 -1 -1 -1 -1 -1 -1 -1 -1 -1 -1 -1 -1 -1 -1 -1 -1 -1 -1 -1 -1 -1 -1 -1 -1 -1 -1 -1 -1 -1 -1 -1 -2 -2 -2 -2 -2 -2 -2 -2 -2 -2 -2 -2 -2 -2 -2 -2 -2 -2 -1 -1 -1 -1 -1 -1 -2 -2 -2 -2 -2 -2 -2 -2
-0 -0 -0 -0 -0 -0 -0 -0 -0 -0 -1 -1 -0 -0 -0 -0 -0 -0 -0 -0 -0 -0 -1 -1 -1 -1 -1 -1 -1 -1 -1 -1 -1 -1 -1 -1 -1 -1 -1 -1 -1 -1 -1 -1 -1 -1 -1 -1 -1 -1 -1 -1 -1 -2 -2 -2 -2 -2 -1 -1 -1 -1 -1 -1 -1 -1 -1 -1 -1 -1 -1 -2 -2 -2 -2 -2 -2 -2 -2 -2 -2 -2 -2 -2 -2 -2 -2 -2 -2 -2 -2 -2 -1 -1 -1 -1 -1 -2 -2 -2 -2 -2 -2
-0 -0 -0 -0 -0 -1 -1 -1 -1 -1 -1 -1 -1 -1 -1 -1 -1 -1 -1 -1 -1 -1 -1 -1 -1 -1 -1 -1 -1 -1 -1 -1 -1 -1 -1 -1 -1 -1 -1 -1 -1 -1 -1 -1 -1 -1 -1 -2 -2 -2 -2 -2 -2 -2 -2 -2 -2 -2 -2 -2 -2 -2 -2 -2 -2 -2 -2 -2 -1 -1 -1 -2 -2 -2 -2 -2 -2 -2 -2 -2 -2 -2 -2 -2 -2 -2 -2 -2 -2 -2 -2 -2 -2 -1 -1 -1 -1 -1 -2 -2 -2 -2 -2
-0 -0 -0 -0 -0 -1 -1 -1 -1 -1 -1 -1 -1 -1 -1 -1 -1 -1 -1 -1 -1 -1 -1 -1 -1 -1 -1 -1 -1 -1 -1 -1 -1 -1 -1 -1 -1 -2 -2 -2 -2 -2 -2 -2 -2 -2 -2 -2 -2 -2 -2 -2 -2 -2 -2 -3 -3 -3 -3 -3 -2 -2 -2 -2 -2 -2 -2 -2 -2 -1 -1 -1 -2 -2 -2 -2 -2 -2 -2 -2 -2 -2 -2 -2 -2 -2 -2 -2 -2 -2 -2 -2 -2 -2 -1 -1 -1 -1 -1 -1 -1 -2 -2
-0 -0 -0 -0 -0 -0 -1 -1 -1 -1 -1 -1 -1 -1 -1 -1 -1 -1 -1 -1 -1 -1 -1 -1 -1 -1 -1 -1 -1 -1 -1 -1 -1 -1 -2 -2 -2 -2 -2 -2 -2 -2 -2 -2 -2 -2 -2 -3 -3 -3 -3 -3 -3 -3 -3 -3 -3 -3 -3 -3 -3 -3 -3 -2 -2 -2 -2 -2 -2 -2 -1 -1 -1 -2 -2 -2 -2 -2 -2 -2 -2 -2 -2 -1 -1 -2 -2 -2 -2 -2 -2 -2 -2 -2 -2 -2 -1 -1 -1 -1 -1 -1 -1
0 -0 -0 -0 -0 -0 -0 -1 -1 -1 -1 -1 -1 -1 -1 -1 -1 -1 -1 -1 -1 -1 -1 -1 -1 -1 -1 -1 -1 -1 -1 -1 -1 -2 -2 -2 -2 -2 -2 -2 -2 -2 -3 -3 -3 -3 -3 -3 -3 -3 -3 -3 -3 -3 -3 -3 -3 -3 -3 -3 -3 -3 -3 -3 -2 -2 -2 -2 -2 -2 -2 -2 -2 -2 -2 -2 -2 -2 -2 -2 -2 -2 -2 -1 -1 -1 -1 -1 -1 -1 -2 -2 -2 -2 -2 -2 -1 -1 -1 -1 -1 -1 -1
0 0 -0 -0 -0 -0 -0 -1 -1 -1 -1 -1 -1 -1 -1 -1 -1 -1 -1 -1 -1 -1 -1 -1 -1 -1 -1 -1 -1 -1 -1 -1 -1 -2 -2 -2 -2 -2 -2 -2 -2 -2 -3 -3 -3 -3 -3 -3 -3 -3 -3 -3 -3 -3 -3 -3 -3 -3 -3 -2 -2 -2 -2 -2 -2 -2 -2 -2 -2 -2 -2 -2 -2 -2 -2 -2 -2 -2 -2 -2 -2 -2 -2 -2 -1 -1 -1 -1 -1 -1 -1 -1 -1 -1 -1 -1 -1 -1 -1 -1 -1 -1 -1
-0 -0 -0 -0 -0 -0 -1 -1 -1 -1 -1 -1 -1 -1 -1 -1 -1 -1 -1 -1 -1 -1 -1 -1 -1 -1 -1 -1 -1 -1 -1 -1 -2 -2 -2 -2 -2 -2 -2 -2 -2 -2 -2 -2 -2 -2 -2 -2 -2 -2 -3 -3 -3 -3 -2 -2 -2 -2 -2 -2 -2 -2 -2 -2 -2 -2 -2 -2 -2 -2 -2 -2 -2 -2 -2 -2 -2 -2 -2 -2 -2 -2 -2 -2 -2 -1 -1 -1 -1 -1 -1 -1 -1 -1 -1 -1 -1 -1 -1 -1 -1 -1 -1
-1 -1 -1 -1 -1 -1 -1 -1 -1 -1 -1 -1 -1 -1 -1 -1 -1 -1 -1 -1 -1 -1 -1 -1 -1 -1 -1 -1 -1 -2 -2 -1 -1 -1 -1 -2 -2 -2 -2 -2 -2 -2 -2 -2 -2 -2 -1 -2 -1 -1 -2 -2 -2 -2 -2 -2 -2 -2 -2 -1 -1 -2 -2 -2 -2 -2 -2 -2 -2 -2 -2 -2 -2 -2 -2 -2 -1 -1 -1 -1 -1 -1 -1 -1 -1 -1 -1 -1 -1 -1 -1 -1 -1 -1 -1 -1 -1 -1 -1 -1 -1 -1 -1
-1 -1 -1 -1 -1 -1 -1 -1 -1 -1 -0 -1 -1 -1 -1 -1 -1 -1 -1 -1 -1 -1 -1 -1 -1 -1 -1 -1 -1 -1 -1 -1 -1 -1 -1 -1 -1 -1 -1 -1 -1 -1 -1 -1 -1 -1 -1 -1 -1 -1 -1 -1 -1 -1 -1 -1 -1 -1 -1 -1 -1 -1 -1 -1 -1 -1 -1 -1 -1 -1 -1 -1 -1 -1 -1 -1 -1 -1 -1 -1 -1 -1 -1 -1 -1 -1 -1 -1 -0 -0 -0 -0 -0 -0 -0 -0 -0 -0 -0 -0 -0 -0 -0
-1 -1 -1 -1 -1 -1 -1 -1 -1 -1 -1 -0 -0 -1 -1 -1 -1 -1 -1 -1 -1 -1 -1 -1 -1 -1 -1 -1 -1 -1 -1 -1 -1 -1 -0 -0 -0 -1 -1 -1 -1 -1 -1 -1 -1 -1 -1 -1 -1 -1 -1 -1 -1 -1 -1 -1 -1 -1 -1 -1 -1 -0 -0 -0 -0 -0 -0 -0 -0 -0 -0 -0 -0 -0 -0 -0 -0 -0 -0 -0 -0 -0 -0 -0 -0 -0 0 0 0 0 -0 -0 -0 -0 -0 -0 -0 -0 -0 0 0 0 -0
-1 -1 -1 -1 -1 -1 -1 -1 -1 -1 -1 -1 -1 -0 -0 -1 -1 -1 -0 -0 -0 -0 -1 -1 -1 -1 -1 -1 -1 -1 -1 -1 -0 -0 -0 -0 -0 -0 -0 -1 -1 -1 -1 -1 -1 -1 -1 -1 -1 -1 -1 -1 -1 -1 -1 -1 -1 -1 -1 -1 -1 -1 -1 -0 -0 -0 -0 -0 -0 -0 -0 -0 -0 -0 -0 -0 -0 -0 0 -0 -0 -0 -0 0 0 0 0 0 -0 -0 -0 -0 -0 -0 -0 -0 -0 -0 -0 -0 -0 -0 -0
0 0 0 -0 -0 -0 -0 -0 -1 -1 -1 -0 -0 -0 -1 -1 -1 -1 -1 -1 -0 -0 -0 -0 -1 -1 -0 -0 -0 -0 -1 -1 -1 -1 -1 -1 -1 -0 -0 -0 -1 -1 -1 -1 -1 -1 -1 -1 -1 -1 -1 -1 -1 -1 -1 -1 -2 -2 -2 -2 -2 -2 -2 -1 -1 -1 -1 -1 -1 -1 -1 -1 -0 -0 -0 -0 -0 -0 -0 -0 -0 0 0 0 1 0 -0 -0 -0 -0 -0 -0 -0 -0 -0 -0 -0 -0 -0 -0 -0 -0 -1
1 1 1 1 1 1 1 1 1 0 0 0 0 0 -0 -0 -0 -0 -1 -1 -1 -1 -1 -1 -1 -1 -0 -0 -0 -0 -1 -1 -1 -1 -1 -1 -1 -1 -1 -1 -1 -1 -1 -1 -1 -1 -1 -1 -1 -1 -1 -1 -1 -1 -1 -1 -2 -2 -2 -2 -2 -2 -2 -2 -2 -2 -2 -2 -2 -2 -2 -2 -1 -1 -1 -1 -1 -0 -0 -0 -0 -0 -0 1 1 0 -1 -0 -0 -0 -1 -0 -0 -0 -0 -0 -0 -0 0 0 -0 -0 -0
2 2 2 2 3 3 3 3 2 2 2 2 2 2 1 1 1 0 -0 -1 -1 -1 -1 -1 -1 -1 -1 -0 -0 -0 -0 -0 -0 -1 -1 -1 -2 -2 -1 -1 -1 -1 -1 -1 -1 -1 -1 -1 -1 -1 -1 -1 -1 -1 -1 -1 -2 -2 -2 -2 -2 -2 -2 -2 -2 -2 -2 -2 -2 -2 -2 -2 -2 -2 -2 -2 -1 -1 -1 -1 -0 -0 -0 0 0 -0 -0 -0 -0 -1 -1 -1 -1 -1 -0 -0 -0 -0 -0 -0 -0 -0 -0
2 2 2 3 3 3 3 3 2 2 2 2 2 2 2 2 2 1 1 1 0 -0 -1 -1 -1 -1 -0 -0 -0 -0 -0 -0 0 -0 -0 -0 -1 -1 -1 -1 -1 -1 -1 -1 -1 -1 -1 -1 -1 -1 -1 -1 -1 -1 -1 -1 -1 -2 -2 -2 -2 -2 -2 -2 -2 -2 -2 -2 -2 -2 -3 -3 -3 -3 -3 -2 -2 -2 -2 -1 -1 -1 -0 -0 -0 -0 -0 -0 -0 -0 0 0 0 0 0 -0 -0 -0 -0 -0 -0 -0 -0
2 2 2 2 2 1 1 1 1 1 1 1 1 1 2 2 2 2 2 1 1 1 1 0 0 0 0 0 0 -0 -0 -0 0 0 0 0 -0 -0 -0 -0 -0 -0 -1 -0 -0 -0 -0 -0 -0 -0 -0 -0 -1 -1 -1 -1 -1 -1 -1 -1 -1 -1 -1 -1 -1 -1 -1 -2 -2 -2 -2 -2 -3 -3 -3 -3 -3 -2 -2 -2 -2 -1 -1 -1 -1 -1 -0 -0 0 0 1 1 1 1 1 -0 -1 -1 -0 -0 -0 -0 -1
1 1 1 1 1 0 -0 0 -0 -0 -0 0 0 1 1 1 1 1 1 1 1 2 2 1 1 1 1 1 1 0 -0 -0 0 0 1 0 0 -0 -0 0 0 0 -0 0 0 0 -0 0 0 0 -0 -0 -0 -1 -1 -1 -1 -0 -0 -0 -0 -0 -0 -0 -1 -1 -1 -1 -1 -1 -1 -1 -2 -2 -2 -3 -2 -2 -3 -3 -2 -2 -2 -2 -2 -1 -1 -1 -0 -0 -0 0 0 1 1 0 -0 -0 -0 -0 -0 -1 -1
0 0 -0 -0 -0 -0 -0 -0 -0 -0 -0 -0 -0 0 0 0 0 0 0 1 1 1 1 1 2 2 2 2 1 1 0 0 0 1 1 1 0 -0 -0 0 0 -0 0 1 1 0 0 1 1 0 -0 -0 -0 -1 -1 -1 -0 -0 0 0 -0 -0 -0 -0 -0 -0 -0 -0 -0 -0 -0 -1 -1 -1 -1 -2 -2 -2 -2 -2 -3 -3 -2 -2 -2 -2 -2 -2 -1 -1 -1 -1 -0 -0 0 0 0 0 0 0 -0 -0 -1
-0 -0 -0 -0 -1 -1 -1 -1 -1 -1 -1 -1 -0 -0 -0 -0 -0 -0 -0 -0 0 0 1 1 1 1 1 2 1 1 1 0 1 1 1 1 0 -0 -0 -0 -0 -0 0 1 1 1 1 1 1 0 0 0 0 -0 -0 -0 -0 0 1 0 -0 -1 -1 -1 -1 -1 -0 -0 -0 -0 -0 -0 -0 -0 -1 -1 -1 -1 -1 -2 -2 -2 -2 -2 -2 -2 -2 -2 -2 -2 -2 -1 -1 -1 -0 -0 -0 0 0 0 0 -0 -0
-1 -1 -1 -1 -0 -1 -1 -1 -1 -0 -1 -1 -1 -1 -0 -0 -0 -0 -0 -0 0 1 1 1 1 1 1 1 1 1 1 0 0 0 0 0 -0 -0 -0 -1 -1 -0 0 0 0 0 1 1 1 0 0 0 0 0 0 1 1 1 1 0 -0 -1 -1 -0 -0 -0 -1 -1 -0 -0 -0 -0 -1 -1 -1 -1 -1 -1 -1 -1 -1 -1 -2 -2 -2 -2 -2 -2 -2 -2 -2 -2 -2 -1 -1 -1 -1 -1 -0 -0 -0 -0 -0
-1 -1 -1 -0 -0 -0 -1 -1 -1 -1 -1 -1 -1 -0 -0 -0 -0 -0 -0 0 1 1 1 1 1 1 1 1 1 1 0 0 -0 -0 -0 -0 -0 -0 -0 -1 -1 -1 -0 -0 -0 -0 0 0 -0 -0 -0 0 0 1 1 1 1 1 0 0 0 0 0 0 0 -0 -0 -1 -1 -1 -1 -1 -1 -1 -1 -1 -1 -1 -1 -1 -1 -1 -1 -1 -1 -1 -2 -2 -2 -2 -2 -2 -2 -2 -2 -1 -1 -1 -1 -1 -1 -0 -0
-1 -1 -1 -1 -1 -1 -1 -1 -1 -1 -1 -1 -1 -1 -0 -0 -0 -0 -1 -0 -0 0 0 0 -0 -0 0 0 0 1 0 0 -0 -0 -0 -0 -0 -0 -0 -1 -1 -0 -0 -1 -1 -1 -0 -0 -0 -0 -0 -0 0 1 1 1 1 1 0 0 1 1 1 1 1 0 -0 -0 -0 -1 -1 -1 -1 -1 -1 -1 -1 -1 -1 -1 -1 -1 -1 -1 -1 -1 -1 -1 -1 -2 -2 -2 -2 -2 -2 -2 -2 -1 -1 -1 -1 -1 -1
-2 -2 -2 -2 -2 -2 -2 -2 -2 -2 -2 -2 -1 -1 -1 -1 -1 -1 -1 -1 -1 -0 -1 -1 -0 -0 -0 -0 -0 0 0 -0 0 0 0 0 0 0 -0 -0 -0 -0 -0 -1 -1 -1 -0 -0 -0 -0 -0 -0 -0 0 1 1 1 0 -0 0 1 1 1 1 1 1 0 0 -0 -0 -1 -1 -1 -1 -1 -1 -1 -1 -1 -1 -1 -1 -1 -1 -1 -1 -1 -1 -1 -1 -1 -2 -2 -2 -2 -2 -2 -2 -1 -1 -1 -1 -1
-3 -3 -3 -3 -3 -2 -2 -2 -2 -2 -2 -2 -2 -2 -2 -2 -1 -1 -1 -1 -1 -1 -1 -1 -1 -0 -0 -0 -0 -0 -0 -0 -0 -0 0 0 1 1 0 -0 -0 -0 -0 -1 -1 -0 -0 -0 -0 -0 -0 -0 -0 0 1 1 0 -0 -0 -0 0 0 0 0 0 0 0 1 0 -0 -0 -1 -1 -1 -1 -1 -1 -1 -1 -1 -1 -1 -1 -1 -1 -1 -1 -1 -1 -1 -1 -1 -1 -1 -1 -1 -1 -1 -1 -1 -1 -1 -1
-2 -2 -2 -2 -2 -2 -2 -2 -1 -1 -1 -1 -1 -1 -1 -1 -1 -1 -1 -1 -1 -1 -2 -2 -1 -0 0 -0 -0 -1 -1 -1 -1 -1 -1 -0 0 0 1 0 -0 -0 -1 -1 -1 -0 -0 -0 -0 -0 -0 -0 -0 -0 0 -0 -0 -1 -1 -0 -0 -0 -1 -1 -0 -0 -0 0 0 0 -0 -0 -1 -1 -1 -1 -1 -1 -1 -1 -1 -1 -1 -1 -2 -2 -2 -2 -1 -1 -1 -1 -1 -1 -1 -1 -1 -1 -1 -1 -1 -1 -1
-1 -0 -0 -1 -1 -1 -1 -1 -1 -1 -1 -1 -1 -1 -1 -1 -1 -1 -1 -1 -1 -1 -2 -2 -2 -1 -0 -0 -0 -0 -1 -1 -2 -2 -1 -1 -0 -0 0 0 -0 -0 -1 -1 -1 -0 -0 -0 -1 -1 -0 -1 -0 -0 -0 -0 -1 -1 -1 -1 -1 -1 -1 -1 -1 -1 -0 -0 0 0 0 -0 -1 -1 -2 -2 -2 -1 -1 -1 -1 -1 -1 -1 -2 -2 -2 -2 -2 -2 -2 -2 -2 -2 -2 -1 -1 -1 -1 -1 -1 -1 -1
1 1 1 0 0 0 -0 -0 -0 -0 -1 -1 -1 -1 -1 -1 -1 -1 -1 -1 -1 -1 -2 -2 -2 -2 -1 -0 -0 -0 -0 -1 -1 -2 -2 -1 -0 -0 -0 -0 -0 -1 -1 -1 -1 -0 -0 -1 -1 -1 -1 -0 -0 -0 -0 -0 -1 -1 -1 -1 -1 -1 -1 -1 -1 -1 -1 -1 -0 0 1 0 -0 -1 -1 -1 -1 -1 -1 -1 -1 -1 -1 -1 -1 -1 -1 -1 -2 -2 -2 -2 -2 -2 -2 -2 -2 -1 -1 -1 -1 -1 -1
1 1 1 1 1 1 0 0 -0 -0 -0 -1 -1 -1 -1 -1 -2 -2 -2 -2 -1 -1 -1 -2 -2 -2 -2 -1 -0 -0 -0 -0 -1 -1 -1 -1 -0 -0 -0 -0 -0 -0 -1 -0 -1 -1 -1 -1 -1 -1 -1 -0 -0 0 0 -0 -0 -1 -1 -1 -0 -0 -0 -1 -1 -1 -1 -1 -0 0 1 1 1 0 -0 -1 -1 -1 -0 -0 -1 -1 -1 -1 -1 -1 -1 -1 -1 -1 -1 -1 -1 -2 -2 -2 -2 -2 -2 -2 -1 -1 -1
1 1 0 0 0 0 0 0 0 0 -0 -0 -0 -1 -1 -1 -1 -1 -2 -2 -1 -1 -1 -1 -2 -2 -2 -2 -1 -1 -1 -1 -1 -1 -1 -0 -0 0 0 -0 -0 -0 0 0 -0 -1 -1 -0 -0 -0 -0 -0 -0 0 1 1 0 -0 -0 -0 -0 -0 0 -0 -1 -1 -1 -1 -1 -0 1 1 1 0 -0 -0 -0 -0 -0 -0 -0 -0 -0 -0 -0 -0 -0 -0 -0 -1 -1 -1 -1 -1 -1 -1 -1 -1 -2 -1 -1 -1 -1
0 0 -0 -0 -0 -0 -0 -0 0 0 -0 -0 -0 -0 -1 -1 -1 -1 -1 -1 -1 -1 -1 -1 -1 -1 -2 -2 -2 -2 -2 -2 -2 -1 -0 -0 -0 -0 -0 -0 -0 0 1 1 0 -0 -0 -0 -0 -0 -0 -0 -0 0 1 1 0 0 0 -0 -0 0 1 0 -0 -1 -1 -1 -0 -0 0 0 0 0 0 0 0 0 0 -0 -0 -0 -0 -0 -0 -0 -0 -0 -0 -0 -0 -0 -0 -0 -0 -1 -1 -1 -1 -1 -1 -1 -1
-0 -0 -0 -0 -0 -0 -0 -0 -0 -0 -0 -0 -0 -0 -1 -1 -1 -1 -1 -1 -1 -1 -1 -1 -1 -1 -1 -2 -2 -2 -3 -3 -3 -2 -1 -1 -1 -1 -1 -0 0 0 -0 0 0 0 -0 -0 -0 -0 -1 -1 -1 -0 0 0 0 0 1 -0 -0 0 0 -0 -1 -1 -1 -1 -0 0 0 0 -0 -0 -0 0 0 0 0 0 -0 -0 -0 -0 -0 -0 -0 -0 -0 -0 0 0 0 -0 -0 -0 -0 -1 -1 -1 -1 -1 -1
-0 -0 -0 -0 -0 -0 -0 -0 -0 -0 -0 -0 -0 -1 -1 -1 -1 -1 -1 -1 -2 -2 -1 -1 -1 -1 -1 -1 -2 -2 -3 -4 -4 -3 -2 -1 -1 -2 -2 -1 -0 0 -1 -1 -1 -0 0 -0 -0 -1 -2 -1 -1 -1 -1 -1 -0 0 0 -0 -0 -0 -0 -1 -1 -2 -2 -1 -0 0 -0 -0 -0 -0 -0 -0 0 1 1 1 0 0 -0 -1 -1 -1 -1 -1 -0 -0 -0 -0 -0 -0 -0 -0 -0 -0 -0 -0 -1 -1 -1
0 0 -0 -0 -0 -0 -1 -0 -0 -0 -0 -0 -0 -1 -1 -1 -1 -1 -1 -1 -1 -1 -1 -1 -1 -1 -0 -0 -1 -2 -3 -4 -4 -4 -3 -3 -2 -1 -1 -2 -1 -0 0 -1 -1 -1 0 -0 -1 -1 -1 -1 -1 -1 -1 -1 -1 -0 -0 -0 0 0 -0 -1 -2 -2 -2 -1 -1 -1 -1 -1 -1 -1 -1 -0 -0 0 1 1 1 1 0 -0 -1 -1 -1 -1 -1 -0 -0 -0 -0 -1 -1 -0 -0 -0 -0 -0 -0 -1 -1
0 0 0 -0 -0 -0 -0 -0 -0 -0 -0 -0 -0 -1 -1 -1 -1 -1 -2 -2 -1 -1 -2 -1 -1 -1 -1 -1 -0 -0 -2 -3 -4 -3 -3 -5 -4 -2 2 3 2 1 1 1 1 1 1 1 -0 -1 -1 0 0 0 -0 -0 -0 -0 -0 0 1 1 1 0 -1 -2 -2 -1 -1 -1 -1 -1 -1 -1 -1 -1 -0 0 0 1 1 1 1 1 -0 -1 -1 -1 -0 -0 -0 -0 -1 -1 -0 -0 -0 -0 -0 -0 -0 -1 -1
1 0 0 0 0 -0 -0 -0 -0 -0 -0 -0 -0 -1 -1 -1 -1 -1 -2 -2 -2 -2 -2 -2 -2 -1 -2 -2 -1 -0 -1 -3 -3 -3 -4 -5 -6 -6 -6 -0 4 5 4 3 3 3 2 1 1 1 1 2 2 2 2 1 1 1 1 2 2 2 3 2 1 -0 -1 -1 -1 -1 -1 -2 -1 -1 -1 -1 -0 -0 0 0 1 1 1 1 1 0 0 -0 0 -0 -0 -0 -1 -0 -0 0 0 0 0 -0 -0 -0 -1
1 1 1 1 0 0 -0 -0 -0 -0 -0 -1 -1 -1 -1 -1 -2 -2 -2 -2 -2 -2 -2 -2 -2 -2 -1 -2 -2 -1 -0 -2 -3 -3 -5 -6 -5 -4 -8 -9 -5 0 4 6 7 6 3 1 0 1 3 3 4 4 3 3 4 3 3 3 3 4 4 3 2 1 1 1 0 -0 -1 -1 -2 -2 -1 -1 -1 -0 -0 -0 0 1 1 1 1 1 1 1 1 1 0 -0 -0 -0 0 0 0 0 0 -0 -0 -0 -0
1 1 1 1 0 -0 -0 -0 -0 -0 -0 -1 -1 -1 -1 -1 -2 -2 -1 -1 -2 -2 -2 -2 -2 -2 -2 -1 -1 -1 0 -1 -3 -4 -3 -7 -6 -4 -3 -7 -10 -11 -7 -1 6 10 11 2 -0 1 4 3 3 4 3 4 4 4 4 4 4 4 4 4 3 2 2 2 2 1 -0 -1 -1 -2 -2 -2 -1 -1 -1 -1 -0 -0 -0 0 1 1 1 2 2 1 0 -0 -0 -0 -0 -0 0 -0 -0 -0 -0 -0 -0
1 0 0 0 0 -0 -0 -1 -1 -0 -0 -0 -0 -1 -1 -1 -1 -1 -1 -1 -2 -2 -2 -2 -1 -2 -3 -2 -1 0 0 -0 -2 -4 -4 -5 -7 -8 -6 -2 -6 -12 -13 -13 -12 -6 12 8 2 -0 4 3 1 -0 2 3 2 2 3 3 3 4 4 4 3 3 3 3 3 2 2 1 -0 -1 -2 -2 -2 -1 -1 -1 -1 -1 -1 -0 -0 0 1 1 1 1 0 0 0 0 -0 -0 -0 -0 -1 -1 -1 -1 -1
0 0 0 0 -0 -0 -0 -1 -1 -1 -0 0 0 -0 -0 -0 -1 -1 -1 -1 -2 -2 -2 -2 -2 -2 -2 -2 -1 0 1 1 -0 -2 -5 -5 -6 -8 -14 -8 -5 -4 -6 -6 -14 -20 -12 3 3 -1 2 4 2 -1 1 2 1 0 2 2 2 3 4 3 4 4 4 4 4 4 3 2 1 0 -0 -1 -1 -1 -1 -1 -1 -1 -2 -1 -1 -0 0 1 1 1 1 1 1 0 -0 -0 -0 -1 -1 -1 -1 -1 -1
0 0 0 0 0 -0 -0 -0 -0 -0 -0 -0 0 0 -0 -0 -0 -1 -1 -1 -2 -2 -1 -2 -3 -3 -2 -3 -3 -1 1 1 1 -0 -3 -5 -4 -4 -9 -14 -13 -10 -7 -3 -4 -9 -18 -13 -8 -3 3 5 1 -2 1 2 0 -1 1 1 1 1 2 2 2 3 4 5 5 5 4 3 2 2 1 0 -0 -0 -0 -1 -1 -1 -1 -2 -2 -1 -0 0 1 1 0 1 1 1 1 0 -0 -1 -1 -1 -1 -1 -1
0 0 0 0 0 -0 -0 -0 -0 -0 -0 -0 -0 -0 -0 -0 -0 -0 -0 -1 -1 -2 -1 -2 -3 -4 -3 -4 -4 -3 -1 1 1 1 -0 -3 -3 -3 -3 -7 -12 -17 -20 -18 -13 -8 -5 -9 -16 -18 -5 11 6 -5 -5 1 1 -0 -1 0 1 0 -0 0 1 1 2 3 4 5 4 4 3 2 2 1 1 0 -0 -0 -1 -1 -1 -2 -2 -1 -1 -0 -0 -0 -0 0 1 1 1 1 -0 -0 -0 -1 -1 -1 -1
0 0 -0 -0 -0 -0 -0 -0 -0 -1 -1 -0 -0 -0 -0 -0 -0 -0 -1 -1 -2 -2 -2 -2 -2 -3 -4 -3 -3 -4 -4 -1 0 1 1 0 -1 -2 -1 -2 -3 -5 -8 -15 -18 -17 -14 -4 -8 -20 -30 2 13 7 -9 -5 -1 2 1 -0 -0 -0 -1 -1 -0 1 1 2 3 3 4 4 3 2 2 2 2 1 1 0 -0 -1 -1 -1 -2 -2 -1 -0 -0 -1 -1 -0 0 1 2 1 1 0 -0 -0 -1 -1 -1
0 -0 -0 -0 -0 -0 -0 -1 -1 -1 -1 -1 -0 -0 -0 -1 -1 -1 -1 -1 -1 -2 -1 -1 -1 -2 -3 -3 -3 -3 -3 -2 -1 -0 0 2 2 1 -0 -1 -1 -2 -1 -4 -8 -12 -18 -15 -10 -12 -28 -23 -1 18 15 -4 -7 -2 3 2 0 -1 -2 -1 -1 -0 1 1 1 1 2 4 4 3 2 2 2 2 2 1 1 -0 -1 -1 -1 -1 -1 -1 -1 -1 -1 -1 -0 0 1 2 1 1 -0 -0 -1 -1 -1
-0 -0 -0 -0 -1 -1 -1 -1 -1 -1 -1 -1 -0 -0 -0 -1 -0 -0 -0 -0 -0 -1 -1 -1 -1 -1 -2 -3 -3 -3 -3 -2 -1 -1 -2 -0 2 4 3 0 -0 -1 -1 -2 -3 -4 -8 -13 -16 -18 -17 -32 -30 -11 24 16 4 -5 -5 0 1 0 -2 -1 -1 -0 0 1 1 1 0 3 4 4 3 2 2 3 3 3 2 1 -0 -1 -1 -1 -1 -1 -1 -1 -1 -1 -1 0 1 1 1 1 0 -0 -1 -1 -1
0 0 -0 -0 -0 -1 -1 -1 -1 -1 -1 -1 -0 -0 -0 -0 -0 -0 0 -0 -0 -0 -0 -0 -0 -1 -1 -2 -2 -2 -3 -2 -1 -1 -2 -3 -1 1 4 2 0 0 1 1 -0 -1 -2 -3 -6 -10 -14 -23 -33 -35 -22 10 17 9 -4 -3 -2 -2 -2 -0 0 0 -1 -0 1 1 -0 1 2 4 3 3 2 3 3 3 3 3 1 -0 -1 -1 -1 -1 -1 -1 -1 -1 -1 -0 0 0 0 0 0 -0 -0 -1 -1
0 0 0 -0 -0 -0 -0 -0 -1 -1 -1 -0 -0 -0 -0 -0 -0 -0 0 -0 -0 -0 -0 0 0 -0 -0 -1 -2 -2 -2 -2 -2 -2 -1 -2 -3 -2 1 2 1 0 1 2 2 2 1 -0 0 -1 -5 -13 -21 -28 -36 -18 1 11 3 4 1 -3 -6 -1 1 1 -1 -0 0 1 1 0 1 2 3 3 3 3 3 4 4 4 2 1 -0 -1 -1 -1 -1 -1 -1 -1 -0 -0 -0 -0 -0 -0 -0 -0 -0 -0 -1
Height
3185 3185 3185 3184 3184 3184 3184 3184 3183 3183 3183 3183 3183 3183 3183 3182 3182 3182 3182 3182 3182 3182 3182 3182 3182 3182 3182 3182 3182 3182 3182 3182 3182 3182 3182 3182 3182 3182 3182 3182 3181 3181 3181 3181 3181 3181 3181 3181 3181 3181 3181 3181 3181 3181 3181 3181 3181 3181 3181 3181 3181 3181 3181 3181 3181 3181 3181 3181 3181 3180 3180 3180 3180 3180 3180 3180 3180 3180 3180 3180 3180 3180 3180 3180 3180 3180 3180 3180 3180 3180 3180 3180 3180 3180 3180 3180 3180 3179 3179 3179 3179 3179 3179
3185 3185 3185 3184 3184 3184 3184 3183 3183 3183 3182 3183 3183 3182 3182 3182 3182 3182 3182 3182 3182 3182 3182 3182 3182 3182 3182 3182 3182 3182 3182 3182 3182 3182 3182 3182 3181 3181 3181 3181 3181 3181 3181 3181 3181 3181 3181 3181 3181 3181 3181 3181 3181 3181 3181 3181 3181 3181 3181 3181 3180 3180 3180 3180 3180 3180 3180 3180 3180 3180 3180 3180 3180 3180 3180 3180 3180 3180 3180 3180 3179 3179 3179 3179 3179 3179 3179 3179 3179 3179 3179 3179 3179 3179 3179 3179 3179 3179 3179 3179 3179 3179 3179
3185 3185 3184 3184 3184 3184 3184 3183 3183 3183 3183 3182 3182 3182 3182 3182 3182 3182 3181 3181 3181 3181 3181 3181 3181 3181 3181 3181 3181 3181 3181 3181 3181 3181 3181 3181 3181 3181 3181 3181 3181 3181 3181 3181 3180 3180 3180 3180 3180 3180 3180 3180 3180 3180 3180 3180 3180 3180 3180 3180 3180 3180 3180 3180 3180 3180 3180 3180 3180 3180 3180 3180 3180 3180 3180 3180 3180 3179 3179 3179 3179 3179 3179 3179 3179 3179 3179 3179 3179 3179 3179 3179 3179 3179 3179 3179 3179 3179 3179 3178 3178 3178 3178
3185 3185 3184 3184 3184 3184 3183 3183 3183 3183 3183 3182 3182 3182 3182 3181 3181 3181 3181 3181 3181 3181 3181 3181 3181 3181 3181 3181 3181 3181 3181 3181 3181 3181 3181 3181 3181 3181 3181 3181 3181 3181 3181 3180 3180 3180 3180 3180 3180 3180 3180 3180 3180 3180 3180 3180 3180 3180 3180 3180 3180 3180 3180 3180 3180 3180 3180 3180 3180 3180 3180 3180 3180 3179 3179 3179 3179 3179 3179 3179 3179 3178 3178 3178 3178 3178 3178 3178 3178 3178 3178 3178 3178 3178 3178 3178 3178 3178 3178 3178 3178 3178 3178
3185 3185 3184 3184 3184 3184 3183 3183 3183 3183 3182 3182 3182 3182 3181 3181 3181 3181 3181 3181 3180 3180 3180 3180 3180 3180 3180 3180 3180 3180 3180 3180 3180 3180 3180 3180 3180 3180 3180 3180 3180 3180 3180 3180 3180 3180 3180 3180 3180 3180 3180 3180 3180 3180 3180 3180 3180 3180 3180 3179 3179 3179 3179 3179 3179 3179 3179 3179 3179 3179 3179 3179 3179 3179 3179 3179 3179 3179 3178 3178 3178 3178 3178 3178 3178 3178 3178 3177 3177 3177 3177 3177 3177 3177 3177 3177 3177 3177 3177 3177 3177 3177 3177
3185 3184 3184 3184 3184 3183 3183 3183 3183 3182 3182 3182 3182 3181 3181 3181 3181 3180 3180 3180 3180 3180 3180 3180 3180 3180 3180 3180 3180 3180 3180 3180 3180 3180 3180 3180 3180 3180 3180 3180 3180 3180 3180 3180 3180 3180 3180 3180 3180 3180 3180 3180 3179 3179 3179 3179 3179 3179 3179 3179 3179 3179 3179 3179 3179 3179 3178 3178 3178 3178 3178 3178 3178 3178 3178 3178 3178 3178 3178 3178 3178 3177 3177 3177 3177 3177 3177 3177 3177 3177 3177 3177 3176 3176 3176 3176 3176 3176 3176 3176 3176 3176 3176
3185 3184 3184 3184 3183 3183 3183 3183 3182 3182 3182 3182 3181 3181 3181 3180 3180 3180 3180 3180 3180 3180 3180 3180 3180 3179 3179 3179 3179 3179 3179 3179 3179 3179 3179 3180 3180 3180 3180 3180 3180 3180 3180 3180 3180 3180 3180 3179 3179 3179 3179 3179 3179 3179 3179 3179 3179 3179 3178 3178 3178 3178 3178 3178 3178 3178 3178 3178 3178 3177 3177 3177 3177 3177 3177 3177 3177 3177 3177 3177 3177 3177 3177 3176 3176 3176 3176 3176 3176 3176 3176 3176 3176 3176 3176 3176 3176 3176 3176 3176 3176 3176 3176
3184 3184 3184 3184 3183 3183 3183 3182 3182 3182 3182 3181 3181 3181 3180 3180 3180 3180 3180 3180 3179 3179 3179 3179 3179 3179 3179 3179 3179 3179 3179 3179 3179 3179 3179 3179 3179 3179 3179 3179 3179 3179 3179 3179 3179 3179 3179 3179 3179 3179 3179 3179 3178 3178 3178 3178 3178 3178 3178 3178 3178 3177 3177 3177 3177 3177 3177 3177 3177 3177 3176 3176 3176 3176 3176 3176 3176 3176 3176 3176 3176 3176 3176 3176 3175 3175 3175 3175 3175 3175 3175 3175 3175 3175 3175 3175 3175 3175 3175 3175 3175 3175 3175
3184 3184 3183 3183 3183 3183 3182 3182 3182 3182 3181 3181 3181 3180 3180 3180 3180 3180 3179 3179 3179 3179 3179 3178 3178 3178 3178 3178 3178 3178 3178 3178 3178 3178 3178 3178 3178 3178 3179 3179 3179 3179 3179 3179 3179 3179 3179 3178 3178 3178 3178 3178 3178 3178 3178 3177 3177 3177 3177 3177 3177 3177 3177 3176 3176 3176 3176 3176 3176 3176 3175 3175 3175 3175 3175 3175 3175 3175 3175 3175 3175 3175 3175 3175 3175 3175 3175 3174 3174 3174 3174 3174 3174 3174 3174 3174 3174 3174 3174 3174 3174 3174 3174
3183 3183 3183 3183 3183 3182 3182 3182 3181 3181 3181 3181 3180 3180 3180 3180 3179 3179 3179 3179 3178 3178 3178 3178 3178 3178 3178 3178 3178 3177 3177 3177 3177 3177 3178 3178 3178 3178 3178 3178 3178 3178 3178 3178 3178 3178 3178 3178 3177 3177 3177 3177 3177 3177 3177 3177 3176 3176 3176 3176 3176 3176 3176 3176 3175 3175 3175 3175 3175 3175 3175 3175 3174 3174 3174 3174 3174 3174 3174 3174 3174 3174 3174 3174 3174 3174 3173 3173 3173 3173 3173 3173 3173 3173 3173 3173 3173 3173 3173 3173 3173 3173 3173
3183 3183 3182 3182 3182 3182 3182 3181 3181 3181 3181 3180 3180 3180 3180 3179 3179 3179 3178 3178 3178 3178 3177 3177 3177 3177 3177 3177 3177 3177 3177 3177 3177 3177 3177 3177 3177 3177 3177 3177 3177 3177 3177 3177 3177 3177 3177 3177 3176 3176 3176 3176 3176 3176 3176 3176 3175 3175 3175 3175 3175 3175 3175 3175 3175 3175 3174 3174 3174 3174 3174 3174 3173 3173 3173 3173 3173 3173 3173 3173 3173 3173 3173 3173 3173 3173 3172 3172 3172 3172 3172 3172 3172 3172 3172 3172 3172 3172 3172 3172 3172 3172 3172
3182 3182 3182 3182 3182 3181 3181 3181 3181 3180 3180 3180 3180 3180 3179 3179 3179 3178 3178 3178 3178 3177 3177 3177 3177 3176 3176 3176 3176 3176 3176 3176 3176 3176 3176 3176 3176 3176 3176 3176 3176 3176 3176 3176 3176 3176 3176 3176 3175 3175 3175 3175 3175 3175 3175 3175 3175 3175 3174 3174 3174 3174 3174 3174 3174 3174 3173 3173 3173 3173 3173 3173 3173 3172 3172 3172 3172 3172 3172 3172 3172 3172 3172 3172 3172 3172 3171 3171 3171 3171 3171 3171 3171 3171 3171 3171 3171 3171 3171 3171 3171 3171 3171
3181 3181 3181 3181 3181 3181 3180 3180 3180 3180 3180 3180 3179 3179 3179 3179 3178 3178 3178 3177 3177 3177 3177 3176 3176 3176 3176 3175 3175 3175 3175 3175 3175 3175 3175 3175 3175 3175 3175 3175 3175 3175 3175 3175 3175 3175 3175 3175 3175 3175 3174 3174 3174 3174 3174 3174 3174 3173 3173 3173 3173 3173 3173 3173 3173 3172 3172 3172 3172 3172 3172 3172 3172 3171 3171 3171 3171 3171 3171 3171 3171 3171 3171 3171 3171 3171 3171 3170 3170 3170 3170 3170 3170 3170 3170 3170 3170 3170 3170 3170 3170 3170 3170
3181 3181 3181 3180 3180 3180 3180 3180 3180 3179 3179 3179 3179 3179 3178 3178 3178 3178 3177 3177 3177 3176 3176 3176 3176 3175 3175 3175 3175 3175 3175 3175 3174 3174 3174 3174 3174 3174 3174 3174 3174 3174 3174 3174 3174 3174 3174 3174 3173 3173 3173 3173 3173 3173 3173 3172 3172 3172 3172 3172 3172 3172 3172 3171 3171 3171 3171 3171 3171 3171 3171 3171 3171 3170 3170 3170 3170 3170 3170 3170 3170 3170 3170 3170 3170 3170 3170 3170 3170 3170 3170 3170 3170 3170 3169 3169 3169 3169 3169 3169 3169 3169 3169
3180 3180 3180 3180 3180 3180 3179 3179 3179 3179 3179 3178 3178 3178 3178 3177 3177 3177 3177 3176 3176 3176 3176 3175 3175 3175 3175 3175 3174 3174 3174 3174 3174 3173 3173 3173 3173 3173 3173 3173 3173 3173 3173 3173 3173 3172 3172 3172 3172 3172 3172 3172 3172 3171 3171 3171 3171 3171 3171 3171 3171 3170 3170 3170 3170 3170 3170 3170 3170 3170 3170 3170 3170 3170 3170 3170 3169 3169 3169 3169 3169 3169 3169 3169 3169 3169 3169 3169 3169 3169 3169 3169 3169 3169 3169 3168 3168 3168 3168 3168 3168 3168 3168
3180 3179 3179 3179 3179 3179 3179 3178 3178 3178 3178 3178 3177 3177 3177 3177 3176 3176 3176 3176 3175 3175 3175 3175 3175 3174 3174 3174 3174 3173 3173 3173 3173 3173 3172 3172 3172 3172 3172 3172 3172 3172 3171 3171 3171 3171 3171 3171 3171 3171 3171 3170 3170 3170 3170 3170 3170 3170 3170 3170 3169 3169 3169 3169 3169 3169 3169 3169 3169 3169 3169 3169 3169 3168 3168 3168 3168 3168 3168 3168 3168 3168 3168 3168 3168 3168 3168 3168 3168 3168 3168 3168 3168 3168 3168 3167 3167 3167 3167 3167 3167 3167 3167
3179 3179 3179 3178 3178 3178 3178 3178 3177 3177 3177 3177 3177 3176 3176 3176 3176 3175 3175 3175 3175 3175 3174 3174 3174 3174 3173 3173 3173 3173 3172 3172 3172 3172 3171 3171 3171 3171 3171 3170 3170 3170 3170 3170 3170 3170 3170 3170 3169 3169 3169 3169 3169 3169 3169 3169 3168 3168 3168 3168 3168 3168 3168 3168 3168 3168 3167 3167 3167 3167 3167 3167 3167 3167 3167 3167 3167 3167 3167 3167 3167 3167 3167 3167 3167 3167 3167 3167 3167 3167 3167 3166 3166 3166 3166 3166 3166 3166 3166 3166 3166 3166 3166
3178 3178 3178 3178 3177 3177 3177 3177 3177 3176 3176 3176 3176 3176 3175 3175 3175 3175 3175 3174 3174 3174 3174 3173 3173 3173 3173 3172 3172 3172 3171 3171 3171 3171 3170 3170 3170 3170 3170 3170 3169 3169 3169 3169 3168 3168 3168 3168 3168 3168 3168 3167 3167 3167 3167 3167 3167 3167 3167 3167 3167 3167 3166 3166 3166 3166 3166 3166 3166 3166 3166 3166 3166 3166 3166 3166 3166 3166 3166 3166 3166 3166 3166 3165 3165 3165 3165 3165 3165 3165 3165 3165 3165 3165 3165 3165 3165 3165 3165 3165 3165 3165 3165
3177 3177 3177 3177 3177 3176 3176 3176 3176 3176 3175 3175 3175 3175 3175 3174 3174 3174 3174 3173 3173 3173 3173 3172 3172 3172 3172 3171 3171 3171 3170 3170 3170 3170 3170 3169 3169 3169 3169 3168 3168 3168 3168 3167 3167 3167 3167 3166 3166 3166 3166 3166 3166 3166 3166 3166 3166 3166 3165 3165 3165 3165 3165 3165 3165 3165 3165 3165 3165 3165 3165 3165 3165 3165 3165 3165 3165 3165 3165 3165 3165 3165 3165 3165 3164 3164 3164 3164 3164 3164 3164 3164 3164 3164 3164 3164 3164 3164 3164 3164 3164 3164 3163
3176 3176 3176 3176 3176 3176 3175 3175 3175 3175 3175 3174 3174 3174 3174 3173 3173 3173 3173 3172 3172 3172 3172 3171 3171 3171 3171 3170 3170 3170 3170 3169 3169 3169 3168 3168 3168 3168 3167 3167 3167 3167 3166 3166 3166 3166 3165 3165 3165 3165 3165 3165 3165 3164 3164 3164 3164 3164 3164 3164 3164 3164 3164 3164 3164 3164 3164 3164 3164 3164 3164 3164 3163 3163 3163 3163 3163 3163 3163 3163 3163 3163 3163 3163 3163 3163 3163 3163 3163 3163 3163 3163 3163 3162 3162 3162 3162 3162 3162 3162 3162 3162 3162
3176 3175 3175 3175 3175 3175 3175 3174 3174 3174 3174 3174 3173 3173 3173 3172 3172 3172 3172 3171 3171 3171 3171 3170 3170 3170 3170 3170 3169 3169 3169 3168 3168 3168 3167 3167 3167 3167 3166 3166 3166 3165 3165 3165 3165 3165 3164 3164 3164 3164 3164 3163 3163 3163 3163 3163 3163 3163 3163 3163 3163 3163 3163 3163 3163 3163 3162 3162 3162 3162 3162 3162 3162 3162 3162 3162 3162 3162 3162 3162 3162 3162 3162 3162 3162 3162 3161 3161 3161 3161 3161 3161 3161 3161 3161 3161 3161 3161 3161 3161 3161 3161 3161
3175 3175 3174 3174 3174 3174 3174 3173 3173 3173 3173 3173 3172 3172 3172 3171 3171 3171 3171 3170 3170 3170 3170 3170 3169 3169 3169 3169 3168 3168 3168 3167 3167 3167 3166 3166 3166 3166 3165 3165 3165 3165 3164 3164 3164 3164 3163 3163 3163 3163 3163 3162 3162 3162 3162 3162 3162 3162 3162 3162 3162 3162 3161 3161 3161 3161 3161 3161 3161 3161 3161 3161 3161 3160 3160 3160 3160 3160 3160 3160 3160 3160 3160 3160 3160 3160 3160 3160 3160 3160 3160 3160 3160 3160 3160 3160 3159 3159 3159 3159 3159 3159 3159
3174 3174 3174 3173 3173 3173 3173 3172 3172 3172 3172 3172 3171 3171 3171 3171 3170 3170 3170 3170 3170 3169 3169 3169 3168 3168 3168 3168 3167 3167 3167 3167 3166 3166 3166 3165 3165 3165 3165 3164 3164 3164 3163 3163 3163 3163 3162 3162 3162 3162 3161 3161 3161 3161 3161 3161 3161 3160 3160 3160 3160 3160 3160 3160 3160 3160 3160 3160 3160 3160 3159 3159 3159 3159 3159 3159 3159 3159 3159 3159 3159 3159 3159 3159 3158 3158 3158 3158 3158 3158 3158 3158 3158 3158 3158 3158 3158 3158 3158 3157 3157 3157 3157
3173 3173 3173 3172 3172 3172 3172 3171 3171 3171 3171 3171 3171 3170 3170 3170 3170 3170 3169 3169 3169 3168 3168 3168 3168 3167 3167 3167 3167 3166 3166 3166 3165 3165 3165 3165 3165 3164 3164 3164 3163 3163 3163 3162 3162 3162 3161 3161 3161 3161 3160 3160 3160 3160 3160 3160 3159 3159 3159 3159 3159 3159 3159 3159 3159 3158 3158 3158 3158 3158 3158 3158 3158 3157 3157 3157 3157 3157 3157 3157 3157 3157 3157 3157 3157 3157 3157 3156 3156 3156 3156 3156 3156 3156 3156 3156 3156 3156 3156 3156 3156 3155 3155
3172 3172 3172 3172 3171 3171 3171 3171 3170 3170 3170 3170 3170 3170 3169 3169 3169 3169 3168 3168 3168 3168 3167 3167 3167 3166 3166 3166 3166 3165 3165 3165 3165 3165 3164 3164 3164 3163 3163 3163 3162 3162 3162 3161 3161 3161 3160 3160 3160 3160 3160 3159 3159 3159 3158 3158 3158 3158 3158 3157 3157 3157 3157 3157 3157 3157 3157 3156 3156 3156 3156 3156 3156 3155 3155 3155 3155 3155 3155 3155 3155 3155 3155 3155 3155 3155 3155 3155 3155 3155 3154 3154 3154 3154 3154 3154 3154 3154 3154 3154 3154 3154 3154
3172 3172 3171 3171 3171 3171 3170 3170 3170 3170 3170 3170 3169 3169 3169 3168 3168 3168 3168 3167 3167 3167 3166 3166 3166 3166 3165 3165 3165 3165 3165 3164 3164 3164 3163 3163 3163 3162 3162 3162 3161 3161 3161 3160 3160 3160 3160 3159 3159 3159 3158 3158 3158 3157 3157 3157 3157 3156 3156 3156 3156 3155 3155 3155 3155 3155 3155 3155 3155 3154 3154 3154 3154 3154 3154 3153 3153 3153 3153 3153 3153 3153 3153 3153 3153 3153 3152 3152 3152 3152 3152 3152 3152 3152 3152 3152 3152 3152 3152 3152 3152 3152 3151
3172 3171 3171 3171 3170 3170 3170 3170 3169 3169 3169 3169 3169 3168 3168 3167 3167 3167 3167 3166 3166 3166 3165 3165 3165 3165 3165 3164 3164 3164 3164 3163 3163 3163 3162 3162 3162 3161 3161 3160 3160 3160 3160 3159 3159 3159 3158 3158 3158 3157 3157 3157 3156 3156 3156 3155 3155 3155 3155 3154 3154 3154 3154 3154 3153 3153 3153 3153 3152 3152 3152 3152 3152 3151 3151 3151 3151 3151 3151 3151 3151 3150 3150 3150 3150 3150 3150 3150 3150 3150 3150 3150 3150 3150 3150 3150 3150 3150 3150 3149 3149 3149 3149
3171 3171 3171 3170 3170 3170 3170 3169 3169 3169 3168 3168 3168 3167 3167 3167 3166 3166 3166 3165 3165 3165 3165 3164 3164 3164 3164 3163 3163 3163 3162 3162 3162 3161 3161 3161 3160 3160 3160 3160 3159 3159 3158 3158 3158 3157 3157 3157 3156 3156 3156 3155 3155 3155 3155 3154 3154 3153 3153 3153 3153 3152 3152 3152 3151 3151 3151 3151 3150 3150 3150 3150 3150 3149 3149 3149 3149 3149 3149 3149 3148 3148 3148 3148 3148 3148 3148 3147 3147 3147 3147 3147 3147 3147 3147 3147 3147 3147 3147 3147 3147 3147 3147
3170 3170 3170 3170 3170 3169 3169 3169 3168 3168 3168 3167 3167 3167 3166 3166 3166 3165 3165 3165 3164 3164 3164 3163 3163 3163 3162 3162 3162 3162 3161 3161 3161 3160 3160 3160 3159 3159 3159 3158 3158 3157 3157 3157 3156 3156 3156 3155 3155 3155 3155 3154 3154 3153 3153 3153 3152 3152 3152 3151 3151 3151 3150 3150 3150 3150 3149 3149 3149 3148 3148 3148 3147 3147 3147 3147 3146 3146 3146 3146 3146 3146 3146 3145 3145 3145 3145 3145 3145 3145 3145 3145 3145 3144 3144 3144 3144 3144 3144 3144 3144 3144 3144
3170 3169 3169 3169 3169 3168 3168 3167 3167 3167 3166 3166 3166 3166 3165 3165 3165 3164 3164 3164 3163 3163 3162 3162 3162 3162 3161 3161 3161 3160 3160 3160 3160 3159 3159 3158 3158 3158 3157 3157 3157 3156 3156 3155 3155 3155 3155 3154 3154 3154 3153 3153 3152 3152 3151 3151 3151 3150 3150 3150 3150 3149 3149 3149 3148 3148 3148 3147 3147 3146 3146 3146 3145 3145 3145 3144 3144 3144 3144 3144 3143 3143 3143 3143 3143 3143 3142 3142 3142 3142 3142 3142 3142 3142 3142 3142 3141 3141 3141 3141 3141 3141 3141
3168 3168 3168 3167 3167 3167 3166 3166 3166 3165 3165 3165 3165 3165 3164 3164 3163 3163 3163 3163 3162 3162 3162 3161 3161 3161 3160 3160 3160 3159 3159 3159 3158 3158 3158 3157 3157 3156 3156 3156 3155 3155 3155 3154 3154 3154 3153 3153 3152 3152 3152 3151 3151 3150 3150 3150 3149 3149 3149 3148 3148 3148 3147 3147 3147 3146 3146 3145 3145 3145 3144 3144 3143 3143 3143 3142 3142 3141 3141 3141 3141 3140 3140 3140 3140 3140 3140 3140 3140 3140 3140 3139 3139 3139 3139 3139 3139 3139 3139 3139 3139 3139 3139
3167 3166 3166 3166 3165 3165 3165 3165 3164 3164 3164 3164 3163 3163 3163 3163 3162 3162 3162 3161 3160 3160 3160 3160 3160 3160 3160 3159 3159 3158 3158 3157 3157 3157 3156 3156 3155 3155 3155 3154 3154 3154 3153 3153 3152 3152 3152 3151 3151 3150 3150 3150 3149 3149 3148 3148 3148 3147 3147 3147 3146 3146 3146 3145 3145 3145 3144 3144 3143 3143 3142 3142 3141 3141 3140 3140 3140 3139 3139 3139 3138 3138 3138 3138 3137 3137 3137 3137 3137 3137 3137 3137 3137 3136 3136 3136 3136 3136 3136 3136 3136 3136 3136
3165 3165 3165 3165 3164 3164 3164 3163 3163 3163 3163 3162 3162 3162 3162 3161 3161 3161 3160 3160 3160 3160 3159 3159 3159 3159 3158 3158 3157 3157 3156 3156 3155 3155 3155 3154 3154 3153 3153 3153 3152 3152 3152 3151 3151 3150 3150 3150 3150 3149 3149 3148 3147 3147 3147 3146 3146 3146 3145 3145 3145 3144 3144 3143 3143 3143 3142 3142 3141 3141 3140 3140 3140 3139 3139 3138 3137 3137 3137 3136 3136 3135 3135 3135 3135 3135 3134 3134 3134 3134 3134 3134 3134 3134 3134 3134 3133 3133 3133 3133 3133 3133 3133
3165 3164 3164 3164 3163 3163 3163 3163 3162 3162 3162 3161 3161 3161 3160 3160 3160 3160 3159 3159 3159 3158 3158 3158 3157 3157 3157 3157 3156 3155 3155 3155 3154 3154 3154 3153 3152 3152 3151 3151 3150 3150 3150 3150 3149 3149 3149 3148 3148 3147 3147 3146 3146 3145 3145 3145 3144 3144 3144 3143 3143 3142 3142 3141 3141 3140 3140 3140 3139 3139 3138 3138 3137 3137 3136 3136 3135 3135 3134 3134 3134 3133 3133 3132 3132 3132 3132 3131 3131 3131 3131 3131 3131 3131 3131 3131 3131 3130 3130 3130 3130 3130 3130
3164 3164 3163 3163 3163 3162 3162 3162 3161 3161 3161 3161 3160 3160 3160 3160 3159 3159 3158 3158 3158 3157 3157 3157 3156 3156 3156 3155 3155 3154 3154 3153 3153 3152 3152 3151 3151 3150 3150 3150 3149 3149 3148 3148 3148 3147 3147 3146 3146 3145 3145 3145 3144 3144 3143 3143 3142 3142 3142 3141 3140 3140 3140 3139 3139 3138 3138 3137 3137 3136 3136 3135 3135 3135 3134 3133 3133 3132 3132 3131 3131 3131 3130 3130 3130 3129 3129 3129 3129 3128 3128 3128 3128 3128 3128 3128 3128 3128 3128 3128 3128 3127 3127
3163 3163 3163 3162 3162 3162 3162 3161 3161 3160 3160 3160 3160 3159 3159 3159 3158 3158 3158 3157 3157 3156 3156 3156 3155 3155 3155 3154 3154 3153 3153 3152 3151 3151 3151 3150 3150 3149 3149 3148 3148 3147 3147 3146 3146 3145 3145 3145 3144 3144 3143 3143 3142 3142 3141 3141 3141 3140 3140 3139 3139 3138 3138 3137 3137 3136 3136 3135 3135 3134 3134 3133 3133 3132 3131 3131 3130 3130 3130 3129 3129 3128 3128 3128 3127 3127 3126 3126 3126 3125 3125 3125 3125 3125 3125 3125 3125 3125 3125 3125 3125 3125 3125
3162 3162 3162 3162 3161 3161 3161 3160 3160 3160 3160 3159 3159 3159 3158 3158 3157 3157 3156 3156 3156 3155 3155 3155 3154 3154 3153 3153 3152 3152 3151 3151 3150 3150 3150 3149 3148 3148 3147 3147 3146 3146 3145 3145 3144 3144 3143 3143 3142 3142 3141 3141 3140 3140 3140 3139 3139 3138 3138 3137 3137 3136 3136 3135 3135 3134 3134 3133 3133 3132 3131 3131 3130 3130 3129 3129 3128 3128 3127 3127 3126 3126 3125 3125 3125 3124 3124 3123 3123 3123 3123 3122 3122 3122 3122 3122 3122 3122 3122 3122 3122 3122 3121
3162 3161 3161 3161 3161 3160 3160 3160 3160 3159 3159 3159 3158 3158 3157 3157 3156 3156 3155 3155 3155 3154 3154 3153 3153 3153 3152 3152 3151 3150 3150 3150 3149 3149 3148 3148 3147 3146 3146 3145 3145 3144 3144 3143 3142 3142 3142 3141 3140 3140 3140 3139 3139 3138 3138 3137 3137 3136 3135 3135 3135 3134 3134 3133 3133 3132 3132 3131 3130 3130 3129 3129 3128 3127 3127 3126 3126 3125 3125 3124 3124 3123 3123 3123 3122 3122 3121 3121 3120 3120 3120 3120 3119 3119 3119 3119 3119 3119 3119 3119 3119 3119 3119
3161 3161 3161 3160 3160 3160 3160 3159 3159 3158 3158 3158 3157 3157 3156 3156 3155 3155 3155 3154 3154 3153 3153 3152 3152 3151 3151 3150 3150 3149 3149 3148 3148 3147 3147 3146 3146 3145 3145 3144 3143 3143 3142 3141 3141 3140 3140 3139 3139 3138 3137 3137 3136 3136 3135 3135 3135 3134 3133 3133 3132 3132 3131 3131 3130 3130 3129 3129 3128 3128 3127 3126 3126 3125 3125 3124 3124 3123 3122 3122 3121 3121 3120 3120 3120 3119 3119 3118 3118 3117 3117 3117 3116 3116 3116 3116 3116 3116 3115 3115 3115 3115 3115
3161 3161 3160 3160 3160 3160 3159 3159 3158 3158 3157 3157 3156 3156 3155 3155 3155 3154 3154 3153 3153 3152 3151 3151 3150 3150 3150 3149 3149 3148 3147 3147 3146 3145 3145 3145 3144 3144 3143 3142 3141 3141 3140 3140 3139 3139 3138 3137 3137 3136 3135 3135 3134 3134 3133 3133 3132 3131 3131 3130 3130 3129 3129 3128 3128 3127 3127 3126 3126 3125 3125 3124 3123 3123 3122 3121 3121 3120 3120 3120 3119 3118 3118 3117 3117 3116 3116 3115 3115 3115 3114 3114 3114 3113 3113 3113 3113 3113 3113 3112 3112 3112 3112
3161 3160 3160 3160 3160 3159 3159 3158 3158 3157 3157 3156 3156 3155 3155 3154 3154 3153 3152 3152 3151 3151 3150 3150 3149 3149 3148 3148 3147 3147 3146 3145 3145 3144 3143 3143 3142 3142 3141 3140 3140 3139 3138 3138 3137 3136 3136 3135 3135 3134 3134 3133 3132 3132 3131 3130 3130 3129 3129 3128 3127 3127 3126 3126 3125 3125 3124 3124 3123 3123 3122 3121 3121 3120 3120 3119 3118 3118 3117 3117 3116 3116 3115 3115 3114 3114 3113 3113 3112 3112 3111 3111 3111 3110 3110 3110 3110 3110 3110 3109 3109 3109 3109
3160 3160 3160 3160 3159 3159 3158 3158 3157 3157 3156 3155 3155 3154 3154 3153 3152 3152 3151 3151 3150 3150 3149 3148 3148 3147 3147 3146 3146 3145 3144 3144 3143 3142 3142 3141 3141 3140 3139 3139 3138 3137 3136 3136 3135 3135 3134 3133 3133 3132 3131 3131 3130 3130 3129 3128 3128 3127 3126 3126 3125 3125 3124 3123 3123 3122 3121 3121 3120 3120 3120 3119 3118 3117 3117 3116 3115 3115 3115 3114 3113 3113 3112 3112 3111 3111 3110 3110 3109 3109 3108 3108 3108 3107 3107 3107 3106 3106 3106 3106 3106 3106 3105
3160 3160 3159 3159 3158 3158 3157 3157 3156 3156 3155 3155 3154 3153 3152 3152 3151 3150 3150 3149 3149 3148 3148 3147 3146 3145 3145 3145 3144 3143 3142 3142 3141 3140 3140 3139 3139 3138 3137 3137 3136 3135 3135 3134 3133 3132 3132 3131 3130 3130 3129 3129 3128 3128 3127 3126 3125 3125 3124 3124 3123 3122 3122 3121 3120 3120 3119 3118 3118 3117 3117 3116 3116 3115 3114 3113 3113 3112 3112 3111 3110 3110 3109 3109 3108 3108 3107 3107 3106 3106 3105 3105 3105 3104 3104 3103 3103 3103 3103 3102 3102 3102 3102
3159 3159 3158 3158 3157 3157 3156 3156 3155 3155 3154 3153 3153 3152 3151 3150 3150 3149 3148 3148 3147 3147 3146 3145 3145 3144 3143 3143 3142 3141 3140 3140 3139 3139 3138 3137 3137 3136 3136 3135 3134 3133 3133 3132 3131 3130 3130 3129 3128 3128 3127 3126 3125 3125 3125 3124 3123 3123 3122 3121 3121 3120 3120 3119 3118 3117 3116 3116 3115 3115 3114 3114 3113 3112 3112 3111 3110 3110 3109 3108 3108 3107 3106 3106 3105 3105 3104 3104 3103 3103 3102 3102 3101 3101 3101 3100 3100 3100 3099 3099 3099 3099 3098
3159 3158 3157 3157 3156 3156 3155 3155 3154 3154 3153 3152 3151 3150 3150 3149 3148 3147 3147 3146 3145 3145 3144 3144 3143 3142 3141 3140 3140 3139 3138 3137 3137 3136 3136 3135 3135 3134 3134 3133 3132 3131 3131 3130 3129 3128 3127 3127 3126 3125 3125 3124 3123 3123 3122 3122 3121 3120 3120 3119 3118 3118 3117 3116 3115 3115 3114 3113 3113 3112 3111 3111 3110 3110 3109 3108 3107 3107 3106 3105 3105 3104 3104 3103 3102 3102 3101 3101 3100 3100 3099 3099 3099 3098 3098 3097 3097 3096 3096 3095 3095 3095 3095
3158 3157 3156 3156 3155 3155 3154 3154 3153 3152 3152 3151 3150 3149 3148 3148 3147 3146 3145 3145 3144 3143 3142 3142 3141 3140 3140 3139 3138 3137 3136 3135 3134 3134 3134 3133 3132 3132 3131 3131 3130 3129 3129 3128 3127 3126 3125 3125 3124 3123 3122 3121 3121 3120 3120 3119 3119 3118 3117 3117 3116 3115 3115 3114 3113 3112 3111 3110 3110 3109 3109 3108 3107 3107 3106 3105 3105 3104 3103 3103 3102 3101 3100 3100 3099 3099 3098 3097 3097 3097 3096 3096 3095 3095 3095 3094 3094 3093 3093 3092 3092 3091 3091
3156 3156 3155 3155 3154 3154 3153 3152 3152 3151 3150 3150 3149 3148 3147 3146 3145 3144 3144 3143 3142 3141 3140 3140 3139 3139 3138 3137 3136 3135 3134 3133 3132 3131 3131 3131 3130 3129 3129 3128 3128 3127 3126 3126 3125 3124 3124 3123 3122 3121 3120 3119 3119 3118 3117 3117 3116 3116 3115 3114 3114 3113 3112 3111 3110 3109 3108 3108 3107 3106 3106 3105 3105 3104 3103 3102 3102 3101 3100 3100 3099 3098 3097 3097 3096 3095 3095 3094 3094 3093 3093 3092 3092 3091 3091 3090 3090 3090 3089 3089 3089 3088 3088
3155 3155 3155 3154 3153 3152 3152 3151 3150 3150 3149 3148 3147 3146 3145 3145 3144 3143 3142 3141 3140 3140 3139 3138 3138 3137 3136 3135 3135 3133 3132 3131 3130 3129 3129 3128 3128 3127 3126 3126 3125 3125 3125 3123 3123 3122 3121 3120 3120 3119 3118 3117 3116 3116 3115 3114 3114 3113 3113 3112 3111 3110 3110 3109 3108 3106 3105 3105 3104 3104 3103 3102 3101 3100 3100 3099 3099 3098 3097 3097 3096 3095 3095 3094 3093 3092 3091 3091 3090 3090 3090 3089 3089 3088 3088 3087 3087 3086 3086 3085 3085 3085 3084
3155 3154 3153 3153 3152 3151 3150 3150 3149 3148 3147 3146 3145 3145 3144 3143 3142 3141 3140 3139 3139 3138 3137 3136 3136 3135 3135 3134 3133 3132 3130 3129 3128 3127 3126 3125 3125 3125 3124 3124 3123 3123 3122 3121 3120 3120 3119 3118 3117 3116 3115 3115 3114 3113 3113 3112 3111 3111 3110 3110 3109 3108 3108 3106 3105 3104 3103 3102 3101 3101 3100 3099 3098 3098 3097 3096 3095 3095 3094 3093 3093 3092 3091 3090 3090 3089 3088 3087 3087 3086 3086 3085 3085 3085 3084 3084 3083 3083 3082 3082 3081 3081 3080
3154 3153 3152 3151 3151 3150 3149 3148 3147 3146 3146 3145 3144 3143 3142 3141 3140 3140 3139 3138 3137 3136 3136 3135 3134 3133 3132 3132 3131 3130 3129 3127 3126 3125 3124 3123 3122 3121 3121 3121 3121 3120 3120 3119 3118 3118 3117 3116 3115 3114 3113 3113 3112 3111 3110 3110 3109 3109 3108 3107 3107 3106 3105 3104 3103 3102 3101 3100 3099 3098 3097 3096 3095 3095 3094 3093 3092 3091 3091 3090 3089 3089 3088 3087 3086 3086 3085 3084 3084 3083 3082 3082 3081 3081 3080 3080 3080 3079 3079 3078 3078 3077 3077
3153 3152 3151 3150 3150 3149 3148 3147 3146 3145 3144 3144 3143 3142 3141 3140 3139 3138 3137 3136 3135 3135 3134 3133 3132 3132 3131 3130 3129 3128 3127 3125 3124 3123 3121 3120 3119 3118 3117 3117 3117 3117 3117 3117 3116 3115 3114 3113 3112 3111 3111 3110 3109 3109 3108 3107 3106 3106 3105 3105 3104 3103 3103 3102 3100 3099 3098 3097 3096 3095 3094 3093 3092 3091 3090 3089 3089 3088 3087 3086 3086 3085 3085 3084 3083 3082 3082 3081 3080 3080 3079 3078 3078 3077 3077 3076 3076 3075 3075 3075 3074 3074 3073
3152 3151 3150 3149 3148 3147 3147 3146 3145 3144 3143 3142 3141 3140 3140 3139 3138 3137 3136 3135 3134 3133 3132 3132 3131 3130 3129 3128 3127 3127 3125 3124 3122 3120 3119 3118 3117 3116 3114 3113 3112 3112 3112 3112 3113 3113 3112 3110 3109 3108 3107 3107 3106 3106 3105 3104 3103 3103 3102 3101 3101 3100 3100 3099 3098 3096 3095 3095 3094 3092 3091 3090 3089 3088 3087 3086 3085 3084 3083 3083 3082 3081 3080 3080 3079 3079 3078 3078 3077 3076 3076 3075 3074 3074 3073 3073 3072 3072 3071 3071 3070 3070 3069
3150 3150 3149 3148 3147 3146 3145 3145 3144 3143 3142 3141 3140 3140 3138 3137 3136 3135 3135 3134 3133 3132 3131 3130 3129 3128 3128 3127 3126 3125 3124 3122 3120 3119 3117 3115 3114 3113 3112 3111 3109 3108 3107 3106 3107 3108 3109 3107 3105 3105 3104 3103 3103 3102 3101 3100 3100 3099 3098 3098 3097 3097 3096 3095 3094 3093 3093 3092 3091 3090 3089 3087 3086 3085 3083 3082 3081 3080 3080 3079 3078 3077 3076 3076 3075 3075 3074 3074 3074 3073 3072 3072 3071 3070 3070 3069 3069 3068 3067 3067 3066 3066 3065
3150 3149 3148 3147 3146 3145 3145 3144 3143 3142 3141 3140 3139 3138 3137 3136 3135 3134 3133 3132 3131 3130 3129 3128 3127 3126 3126 3125 3124 3123 3122 3121 3119 3117 3115 3113 3112 3110 3109 3108 3107 3105 3104 3103 3102 3102 3103 3103 3101 3101 3101 3100 3099 3098 3098 3097 3096 3095 3095 3094 3093 3093 3092 3091 3091 3090 3089 3089 3088 3087 3086 3085 3083 3082 3080 3079 3078 3077 3076 3075 3074 3073 3073 3072 3071 3071 3070 3070 3070 3069 3069 3068 3067 3067 3066 3065 3065 3064 3064 3063 3063 3062 3061
3148 3147 3147 3146 3145 3144 3143 3142 3141 3140 3140 3139 3138 3137 3136 3135 3134 3133 3132 3131 3130 3129 3128 3127 3125 3125 3124 3123 3122 3122 3121 3120 3118 3116 3114 3112 3110 3108 3106 3105 3104 3103 3102 3100 3099 3098 3097 3097 3096 3096 3097 3096 3095 3094 3094 3093 3092 3091 3091 3090 3090 3089 3088 3088 3087 3086 3085 3085 3085 3084 3083 3082 3080 3079 3078 3076 3075 3074 3073 3072 3071 3070 3069 3068 3067 3067 3066 3066 3066 3065 3065 3064 3064 3063 3063 3062 3061 3061 3060 3060 3059 3058 3058
3147 3146 3145 3145 3144 3143 3142 3141 3140 3139 3138 3137 3136 3135 3135 3134 3133 3131 3130 3129 3128 3127 3126 3125 3124 3123 3121 3120 3120 3120 3119 3118 3116 3114 3112 3110 3109 3107 3105 3103 3101 3099 3098 3097 3096 3095 3094 3092 3091 3091 3093 3093 3091 3089 3090 3089 3088 3087 3087 3086 3085 3085 3084 3083 3083 3082 3082 3081 3081 3080 3079 3078 3077 3076 3075 3074 3072 3071 3070 3069 3068 3067 3066 3065 3064 3063 3063 3062 3062 3061 3061 3060 3060 3060 3059 3059 3058 3057 3056 3056 3055 3055 3054
3146 3145 3144 3143 3143 3142 3141 3140 3139 3138 3137 3136 3135 3134 3133 3132 3131 3130 3129 3128 3126 3125 3124 3123 3122 3121 3119 3118 3117 3117 3116 3116 3114 3113 3111 3109 3108 3106 3104 3101 3100 3098 3096 3094 3093 3091 3090 3090 3087 3085 3085 3088 3088 3085 3085 3085 3085 3084 3083 3082 3082 3081 3080 3079 3079 3078 3078 3077 3077 3076 3075 3075 3074 3072 3071 3070 3069 3068 3067 3066 3065 3064 3063 3062 3061 3060 3060 3059 3058 3058 3057 3056 3056 3056 3056 3055 3055 3054 3053 3052 3051 3051 3050
3145 3144 3143 3142 3141 3140 3139 3138 3137 3136 3135 3135 3134 3133 3131 3130 3129 3128 3127 3126 3125 3123 3122 3121 3120 3119 3117 3116 3115 3114 3114 3113 3112 3110 3109 3108 3106 3105 3102 3100 3098 3096 3095 3092 3090 3089 3087 3086 3085 3082 3080 3080 3083 3084 3081 3080 3080 3080 3080 3079 3078 3077 3076 3075 3075 3074 3074 3073 3072 3072 3071 3070 3070 3069 3068 3067 3066 3065 3064 3063 3062 3061 3060 3059 3058 3057 3056 3055 3055 3054 3053 3053 3052 3052 3052 3052 3051 3050 3050 3049 3048 3047 3046
3144 3143 3142 3141 3140 3139 3138 3137 3136 3135 3134 3133 3132 3131 3130 3129 3128 3126 3125 3124 3123 3121 3120 3119 3118 3116 3115 3114 3112 3111 3110 3110 3109 3108 3106 3105 3104 3103 3101 3099 3097 3095 3093 3091 3089 3087 3085 3083 3081 3079 3077 3074 3075 3077 3080 3078 3076 3075 3075 3075 3074 3073 3072 3071 3070 3070 3070 3069 3068 3067 3067 3066 3066 3065 3064 3063 3062 3062 3061 3060 3059 3058 3057 3055 3055 3054 3053 3052 3051 3050 3050 3049 3049 3049 3048 3048 3047 3047 3046 3045 3044 3043 3042
3142 3141 3140 3140 3139 3137 3136 3135 3134 3133 3132 3131 3130 3129 3128 3127 3126 3125 3124 3122 3121 3120 3118 3117 3116 3115 3113 3111 3110 3109 3108 3107 3106 3105 3103 3102 3101 3100 3099 3097 3095 3094 3092 3090 3088 3086 3084 3081 3079 3077 3075 3071 3069 3068 3070 3074 3073 3071 3070 3070 3070 3069 3068 3067 3066 3066 3065 3065 3064 3063 3062 3062 3061 3061 3060 3059 3059 3058 3057 3056 3056 3055 3054 3052 3051 3050 3049 3048 3047 3047 3046 3046 3045 3045 3045 3044 3044 3043 3042 3041 3040 3040 3039
3141 3140 3139 3138 3137 3136 3135 3134 3133 3131 3130 3130 3128 3127 3126 3125 3124 3123 3122 3120 3119 3118 3116 3115 3114 3112 3111 3109 3108 3106 3105 3104 3103 3101 3100 3099 3098 3097 3096 3094 3092 3091 3090 3088 3086 3084 3082 3080 3078 3076 3073 3070 3067 3064 3063 3065 3067 3068 3066 3066 3065 3064 3063 3063 3063 3062 3061 3060 3060 3059 3058 3057 3057 3056 3056 3055 3055 3054 3054 3053 3052 3051 3050 3049 3048 3047 3045 3045 3044 3043 3042 3042 3041 3041 3040 3040 3040 3039 3038 3037 3037 3036 3035